Theta_e
346 345 349 346 353 354 356 355 351 352 350 347 346 348 350 351 352 348 346 345 343 339 342 340 333 333 332 332 331 330 331 332 332 330 334 338 337 337 337 338 336 335 337 339 339 338 337 339 342
351 358 345 349 353 353 354 353 355 352 350 347 350 350 349 348 348 347 345 344 343 338 341 342 331 330 330 330 330 331 333 334 333 325 327 337 338 338 338 341 339 338 339 338 332 339 338 338 341
357 357 349 348 350 353 355 355 355 351 350 351 350 349 348 349 348 346 345 344 342 340 342 334 331 332 337 332 331 335 337 334 329 323 328 338 340 339 338 338 332 338 339 339 338 339 337 335 334
352 351 352 350 354 354 353 352 352 350 350 349 347 350 349 348 347 346 344 344 341 340 336 332 331 331 341 331 332 337 341 339 336 327 327 325 332 340 340 337 337 329 329 329 329 334 338 340 338
352 350 355 354 355 355 354 351 351 353 351 350 349 350 349 346 346 345 345 343 338 334 332 331 331 336 340 333 331 332 334 337 339 332 338 337 333 332 330 327 331 338 337 337 334 336 335 331 339
353 351 353 356 355 352 354 350 351 351 350 349 349 349 347 346 341 342 342 341 333 331 331 331 334 338 340 338 332 338 341 338 332 331 330 330 330 330 330 333 333 328 330 334 331 334 338 334 335
351 349 353 354 356 357 352 351 351 350 350 350 348 347 345 346 344 339 339 337 332 331 331 332 338 339 338 335 333 339 340 340 329 328 329 327 326 327 330 332 333 334 334 332 330 335 332 336 334
348 345 348 351 358 357 350 350 350 350 351 349 348 346 344 345 344 337 331 329 329 329 330 336 339 338 337 334 332 343 334 329 328 328 327 326 326 329 333 332 332 333 335 335 335 335 331 330 329
345 347 350 353 354 354 350 352 349 350 350 349 349 347 345 345 344 342 331 332 332 332 333 337 338 337 335 333 342 338 330 328 328 328 327 331 333 336 336 335 335 334 333 332 334 336 335 333 334
345 352 351 346 345 352 351 351 350 350 349 350 348 346 346 345 345 344 334 339 338 335 336 337 337 337 336 331 332 331 329 327 327 327 328 330 334 333 332 335 338 338 335 328 331 333 336 338 335
346 351 344 345 347 345 351 349 350 349 350 349 347 346 346 345 346 345 346 346 345 344 337 337 337 338 337 334 330 330 329 328 328 328 329 330 332 333 335 336 335 336 339 334 339 335 340 340 339
345 344 342 346 346 343 345 351 350 349 349 349 347 346 346 346 346 346 346 347 347 345 342 338 338 337 334 333 330 329 329 329 335 336 332 333 333 333 333 335 335 334 341 339 338 340 342 342 342
346 345 342 341 344 343 346 350 350 349 347 348 347 347 346 346 346 346 347 347 347 346 343 336 335 333 340 333 331 333 338 341 343 342 340 339 336 335 335 335 336 333 341 341 340 341 342 342 342
345 344 342 343 345 344 342 347 348 350 348 349 346 348 347 346 347 349 349 348 348 345 345 340 340 341 343 341 342 343 343 343 344 344 345 344 339 338 342 338 338 338 336 342 341 342 341 341 341
344 345 345 345 344 343 343 348 350 349 348 347 348 347 346 347 348 348 346 348 346 345 345 344 343 343 344 344 344 344 345 344 345 345 346 344 336 340 343 341 341 338 338 342 342 341 340 340 341
346 342 343 342 345 341 344 350 348 348 347 345 348 349 348 346 346 346 346 346 346 345 345 345 343 344 344 344 345 345 345 345 345 347 347 339 336 341 344 344 343 342 342 340 340 340 340 339 342
342 343 346 346 345 342 340 344 344 346 346 345 345 346 346 344 344 343 343 344 344 344 344 344 343 344 344 344 344 345 345 346 346 345 344 341 342 342 345 346 345 345 343 343 342 340 340 339 343
342 345 343 345 344 345 343 341 344 346 346 345 344 344 343 343 343 343 343 342 343 342 342 342 342 343 343 344 345 345 345 346 346 347 345 343 345 346 346 347 346 346 344 342 343 343 342 343 342
341 343 345 344 343 345 347 345 344 344 343 344 345 345 345 345 345 345 344 344 342 342 341 342 342 342 343 344 344 345 345 346 347 348 346 347 346 347 348 348 347 346 345 344 343 343 343 343 344
342 343 344 345 345 345 347 345 343 343 343 342 344 344 345 345 345 345 345 345 343 342 342 342 342 343 343 343 345 346 347 347 348 348 347 346 346 346 346 343 345 346 346 346 344 342 343 342 343
340 342 343 345 346 348 348 346 347 343 341 341 345 345 344 345 346 345 345 345 343 343 343 343 343 343 345 345 346 346 347 347 349 348 348 349 348 345 344 346 347 346 347 346 345 344 343 343 344
342 340 343 347 344 346 346 349 340 343 342 340 340 343 344 344 345 345 345 345 344 344 344 344 344 344 345 347 347 347 349 350 349 349 348 347 346 346 345 346 348 348 347 345 346 345 344 343 342
339 340 341 344 341 346 349 344 341 342 342 342 342 343 344 344 345 345 345 344 344 344 344 345 344 345 345 347 348 348 350 350 350 350 350 350 347 346 348 348 347 345 345 344 345 344 343 343 341
339 338 334 336 335 340 341 345 342 342 341 339 336 339 342 345 345 345 345 345 344 344 345 345 344 345 346 347 349 350 350 351 349 350 350 351 350 350 348 346 346 346 346 345 343 339 338 343 344
333 332 335 340 341 343 337 346 343 338 342 337 341 341 340 343 345 345 345 346 345 345 345 345 345 345 346 348 350 351 352 351 348 346 347 347 347 349 345 344 346 346 346 347 343 340 343 341 341
333 331 334 342 339 342 337 341 339 340 343 343 345 343 343 343 345 346 346 341 344 346 346 346 346 347 347 349 350 352 349 338 342 348 343 336 346 347 347 344 344 344 345 345 345 343 341 338 336
335 334 331 334 334 336 335 341 340 339 337 340 343 345 346 346 345 346 342 337 337 342 347 348 350 350 350 349 352 352 350 347 337 347 347 341 342 347 346 346 346 344 343 346 343 344 341 338 336
332 331 337 331 341 343 338 340 340 341 339 339 345 344 344 347 346 346 340 346 346 346 343 344 344 353 355 355 354 352 349 349 348 348 347 347 345 347 347 348 347 346 346 345 343 342 341 339 338
335 335 331 330 331 336 339 339 336 339 337 337 339 344 345 346 346 343 342 342 339 339 341 347 352 355 354 354 352 351 350 350 348 348 348 347 345 345 344 343 343 343 342 341 341 341 341 340 338
330 332 331 333 335 331 333 335 338 338 336 339 339 341 346 345 347 346 346 345 340 348 352 356 355 353 354 353 352 350 345 338 335 335 335 335 336 337 337 337 337 338 338 339 339 339 338 335 337
Wind_Speed
11 8 11 4 2 3 3 5 5 6 3 8 24 4 5 3 1 3 22 30 31 29 26 24 24 23 23 22 20 18 17 16 15 15 15 15 16 15 15 13 12 13 12 11 11 11 13 12 13
6 5 5 2 4 4 3 4 3 2 8 20 10 5 5 2 4 17 35 29 30 29 27 24 23 22 21 21 19 18 16 15 15 14 16 16 16 15 14 13 14 14 13 12 12 12 14 14 14
2 1 2 3 3 3 2 2 5 8 23 13 6 6 3 2 12 34 30 33 31 30 27 25 23 21 19 19 18 16 15 14 15 15 16 16 15 15 14 13 13 13 12 12 12 12 14 14 12
1 4 3 4 3 1 4 4 8 9 11 9 16 7 6 4 25 21 34 35 31 29 27 26 23 20 18 17 17 15 15 14 15 15 15 16 14 14 13 13 13 13 12 11 11 12 12 12 12
4 5 4 2 2 2 2 6 8 1 4 13 6 4 9 11 11 29 33 32 30 29 27 25 22 20 18 16 16 15 15 15 15 14 15 14 13 13 12 12 12 11 11 11 12 10 10 12 13
3 2 2 1 3 3 4 11 9 5 7 10 13 10 5 6 24 27 30 30 28 28 26 24 21 19 17 15 16 15 16 13 13 13 13 13 12 11 11 10 10 9 9 9 10 10 10 11 13
4 2 2 4 2 2 3 10 8 10 10 6 16 4 9 22 22 25 27 28 27 25 25 23 21 18 17 16 16 15 15 14 12 11 11 10 9 8 7 7 7 8 8 7 8 9 12 12 12
4 1 6 5 1 3 8 6 18 18 4 21 21 7 9 27 23 26 27 26 24 23 23 21 19 19 18 17 16 16 14 12 11 11 10 9 7 7 6 6 6 5 7 8 7 8 9 12 12
3 4 3 6 4 4 14 5 17 7 21 9 6 17 30 30 28 26 29 27 27 25 24 22 21 19 18 18 18 16 13 11 10 10 10 9 9 7 6 6 6 7 6 7 8 8 8 10 11
4 3 4 5 10 4 4 15 18 7 18 3 14 19 33 34 29 28 30 27 26 25 25 23 21 19 18 18 18 15 14 11 9 10 10 11 10 8 6 8 9 12 9 9 9 9 8 7 8
4 4 3 5 11 14 2 16 12 20 5 12 29 34 37 35 32 30 29 26 24 22 23 24 22 19 18 19 18 15 13 12 11 10 9 11 12 10 9 10 15 13 11 12 10 10 8 7 7
7 2 11 8 9 9 1 3 9 13 4 21 23 39 39 37 33 32 31 27 24 22 17 19 22 20 18 18 18 16 15 14 11 12 12 11 13 11 12 10 14 15 13 14 12 11 8 10 11
4 7 14 6 7 5 3 7 4 6 17 23 29 38 40 37 33 31 29 26 24 21 18 19 22 19 16 17 17 16 14 15 12 12 12 13 14 13 13 11 11 17 16 17 15 13 10 8 10
4 2 4 4 10 4 6 2 5 8 22 23 31 37 37 36 34 32 31 27 26 23 20 20 20 19 18 17 15 15 14 14 15 14 13 14 14 12 10 11 11 13 19 18 17 15 13 14 15
9 4 6 9 4 2 5 4 4 22 24 24 28 28 31 32 31 31 28 28 25 23 21 21 21 19 20 19 17 17 16 15 16 15 13 14 14 12 10 9 10 9 14 19 17 17 16 16 14
3 4 1 3 1 3 3 3 4 21 24 23 31 31 30 30 28 29 28 28 27 24 25 23 23 23 21 21 18 17 15 15 16 16 15 14 15 14 13 12 11 10 10 16 21 21 20 19 17
3 2 3 4 7 4 4 3 4 15 20 22 23 32 32 27 26 26 26 28 26 23 26 24 24 25 22 21 19 18 17 17 16 14 16 15 13 14 12 13 12 11 14 16 18 20 21 20 17
5 4 4 3 1 2 4 3 4 3 22 21 22 25 31 30 32 30 28 28 28 25 25 26 24 24 24 23 23 22 22 21 19 18 15 14 16 14 13 14 12 13 14 14 15 16 16 16 15
3 4 4 2 5 3 3 3 8 11 6 13 24 27 31 35 32 32 30 31 30 30 30 30 28 26 26 26 25 26 26 23 21 21 12 12 15 14 15 16 16 16 16 15 16 16 17 17 15
5 5 2 2 5 1 1 6 5 9 7 15 17 29 36 34 33 32 33 29 31 31 32 33 32 28 28 27 26 25 23 23 20 18 14 9 13 15 15 14 16 17 16 16 16 18 19 17 17
4 4 1 1 3 4 4 8 3 2 7 12 7 17 26 37 36 34 33 33 33 30 34 33 34 29 20 27 28 28 27 26 21 18 13 10 12 13 14 17 15 14 16 16 13 14 17 19 19
2 8 6 8 3 1 3 4 6 1 7 7 8 7 10 24 33 34 34 35 35 33 34 36 35 30 30 22 28 30 28 25 19 14 9 11 12 13 14 15 15 15 15 14 11 12 14 15 16
7 5 6 5 3 2 2 2 6 2 6 2 5 10 15 14 30 34 35 35 37 34 35 39 37 35 28 30 27 26 30 26 18 16 14 11 11 12 12 15 13 15 13 12 12 11 13 12 12
3 6 7 6 3 3 4 4 6 4 4 3 2 12 19 21 25 32 28 34 39 37 36 41 43 41 37 33 23 29 24 22 19 16 13 11 11 11 11 13 15 14 13 13 9 6 10 9 6
4 6 3 3 2 5 2 3 8 5 5 4 11 18 22 23 27 27 30 28 32 40 40 38 42 45 44 36 33 28 28 23 16 15 13 14 15 12 10 11 13 15 15 13 12 12 11 9 7
7 8 5 4 4 4 5 5 6 5 10 10 19 21 22 23 26 31 32 22 26 27 33 37 42 44 42 34 35 33 13 21 27 18 13 16 21 14 14 14 15 13 15 13 14 16 14 12 12
3 2 3 7 3 2 3 6 8 6 6 4 16 20 19 25 26 26 28 15 17 23 21 24 28 29 31 33 30 23 13 9 10 16 18 14 11 9 10 10 11 13 12 10 11 11 14 21 25
6 6 1 3 4 3 3 5 6 6 9 8 12 15 21 24 25 24 8 8 11 14 14 16 16 17 18 15 14 18 15 8 6 7 8 9 11 9 9 9 9 9 10 11 10 14 17 19 19
2 1 5 5 4 6 3 6 8 12 13 8 1 2 6 10 15 26 22 13 12 14 13 11 6 4 6 10 12 12 10 9 4 4 4 6 6 4 3 3 4 5 6 7 8 7 9 14 20
5 8 7 5 6 2 3 6 6 11 7 8 6 4 7 6 6 6 6 6 10 6 5 6 3 4 9 8 6 3 1 2 2 3 3 2 2 3 4 4 4 4 3 4 2 6 9 5 10
Wind_Direction
108 98 139 148 44 69 16 25 86 92 100 182 157 200 167 82 169 182 145 156 161 153 150 152 151 148 145 145 144 146 144 139 136 136 143 140 144 139 135 134 129 138 146 142 138 145 160 159 156
129 74 184 212 70 55 353 352 52 117 123 131 146 121 62 92 122 141 149 158 161 155 151 155 153 151 149 147 148 147 143 138 135 133 139 140 143 137 132 129 127 127 136 136 138 142 154 161 158
191 344 197 91 119 137 144 227 115 102 133 132 106 87 62 86 152 146 154 159 161 158 157 154 153 151 149 147 146 145 142 140 132 126 133 138 137 135 132 133 131 131 133 134 140 146 149 156 157
316 338 51 70 357 234 166 214 169 151 104 105 118 78 75 251 138 158 154 161 163 160 159 155 154 151 148 150 148 151 142 145 138 134 129 135 137 134 131 134 132 132 136 140 147 155 155 160 159
13 5 28 2 286 268 231 194 178 3 74 103 118 71 102 142 163 154 156 163 164 161 161 157 158 158 154 156 155 152 149 147 143 140 138 137 137 135 133 135 140 142 142 146 152 158 159 163 164
8 68 33 259 278 341 307 154 133 91 92 106 99 100 121 167 152 153 158 162 166 163 163 163 165 166 164 168 159 156 152 157 152 151 146 148 148 147 145 144 145 149 158 162 169 175 175 179 181
154 155 254 195 260 352 260 157 138 127 115 97 119 78 128 157 154 153 159 163 168 168 169 171 172 175 178 175 169 165 164 166 160 165 163 163 163 162 159 160 167 168 174 179 184 181 186 195 204
223 23 3 10 257 293 159 167 160 137 128 138 134 152 163 167 161 159 162 166 172 174 178 180 183 185 185 182 176 177 179 174 173 180 180 174 167 167 169 179 181 192 192 190 197 209 208 202 210
189 62 325 351 342 282 157 128 154 162 141 170 205 169 162 163 168 164 167 170 175 181 188 192 194 194 191 187 184 188 188 185 186 192 187 183 173 173 187 194 213 200 216 214 202 208 216 224 217
85 62 276 283 303 234 155 146 158 129 160 165 110 143 160 168 170 165 170 176 183 190 196 200 200 199 199 199 200 197 198 199 203 208 200 197 191 192 234 230 217 221 223 223 215 204 204 228 239
58 167 223 264 279 43 35 145 159 147 214 189 151 153 168 175 176 177 179 185 185 194 202 204 205 207 209 210 208 206 210 213 216 227 221 215 216 240 249 263 235 228 225 218 223 209 219 228 224
118 239 226 159 28 15 267 132 144 166 195 181 179 170 174 181 185 191 191 193 195 199 207 210 210 212 215 217 217 223 225 226 227 241 237 238 239 252 265 273 233 220 222 213 225 226 242 241 230
182 192 247 87 347 19 78 83 129 181 147 160 169 171 178 188 193 200 201 198 203 204 207 203 206 205 210 213 216 221 228 236 243 244 248 253 256 264 265 264 250 229 221 222 227 234 243 244 249
192 268 34 50 301 294 52 87 77 156 151 151 155 172 181 189 195 197 202 205 213 210 212 202 202 206 213 215 219 229 239 245 244 253 257 267 259 258 271 262 261 240 224 227 231 241 250 258 264
113 63 359 283 258 315 121 35 149 164 162 157 168 170 186 195 196 204 210 212 219 219 216 216 213 216 223 228 236 238 248 253 254 264 268 273 262 251 259 263 263 257 239 233 240 251 261 263 261
47 49 85 273 118 310 103 278 130 169 167 166 173 188 197 204 202 214 220 226 224 225 222 224 222 226 231 233 242 248 258 263 266 268 268 275 263 249 254 255 259 253 254 241 244 253 258 264 262
23 174 236 304 210 235 91 151 190 178 183 179 188 186 198 209 215 219 224 226 222 226 228 228 227 233 239 240 246 255 264 264 268 275 265 264 260 250 260 263 264 260 256 252 252 253 255 252 261
240 166 226 246 144 287 53 102 114 223 192 191 197 200 197 204 208 216 229 231 230 233 238 237 236 241 242 242 246 252 255 259 262 264 250 255 258 251 261 270 272 263 258 251 252 254 248 253 264
175 161 133 201 184 153 189 185 178 174 186 189 205 209 210 215 219 223 226 230 232 237 241 237 237 243 241 242 244 248 252 260 264 270 270 264 268 277 273 280 279 267 257 258 259 259 262 262 257
189 170 149 109 140 95 287 252 213 174 190 207 228 214 217 220 225 228 229 231 229 235 238 239 241 245 246 247 248 254 259 263 270 277 275 258 266 268 273 281 275 262 258 259 261 262 266 268 261
251 141 82 72 119 44 333 306 175 162 183 195 195 224 224 221 226 231 230 229 229 236 239 242 243 244 252 253 249 251 253 256 264 276 282 287 274 271 274 266 268 261 256 260 264 270 272 273 273
237 150 72 120 100 257 2 278 309 234 236 195 191 232 245 223 229 234 234 230 230 240 243 242 244 243 244 258 249 252 252 254 265 271 278 272 271 274 272 267 267 260 257 271 281 282 290 283 275
209 226 136 160 84 72 320 66 266 16 318 86 191 214 229 227 222 231 235 234 235 241 251 244 247 243 247 253 250 246 250 257 261 258 266 277 280 282 279 267 271 271 273 295 301 300 302 305 277
179 83 42 46 73 348 217 148 283 317 299 35 274 204 204 216 214 222 235 231 231 242 245 247 245 252 247 251 253 252 254 257 261 261 278 293 291 299 303 300 295 291 272 252 249 250 292 288 293
63 72 25 39 21 222 128 132 252 276 281 197 218 200 195 203 207 208 224 224 231 240 245 253 252 252 241 247 256 256 252 254 279 277 282 277 274 267 260 280 273 286 282 271 244 254 242 263 283
188 152 157 204 195 209 43 238 256 232 255 234 251 186 185 190 204 215 228 225 230 234 250 259 262 257 252 254 265 262 348 320 293 282 266 301 269 270 284 287 298 280 274 277 269 244 253 249 267
189 187 178 102 25 70 220 285 298 213 260 215 208 176 177 189 197 208 216 249 226 240 255 258 257 267 262 252 264 297 331 291 327 242 257 276 296 289 304 292 293 274 274 272 281 245 237 261 266
158 158 117 13 139 231 291 283 231 261 224 215 168 192 194 194 192 199 166 175 194 225 266 269 273 265 260 259 270 292 307 286 288 254 267 279 302 306 299 288 271 268 270 278 265 269 263 247 254
128 156 49 114 118 162 167 260 214 216 208 201 233 150 253 201 207 217 243 242 240 268 280 271 244 220 245 263 281 290 303 317 301 257 266 286 301 321 331 313 304 300 289 280 274 270 252 272 262
171 182 155 130 221 231 162 271 228 218 110 137 201 246 258 248 236 220 235 259 242 262 192 162 147 266 263 268 273 293 42 92 81 70 69 74 32 18 21 22 25 25 1 348 320 276 261 250 283